Torna al catalogo

ONEWEB-0192

AttivoComunicazioniPO
NORAD 48222·PAYLOAD·🇬🇧 United Kingdom

Lanciato Apr 25, 2021 da Vostochny Cosmodrome

Loading…

Prossimi Passaggi (prossime 24 ore)

TLE

AggiornatoSource: CelesTrak SupGP

Epoca: Sep 14, 2026, 18:43 UTC

1 48222C 21031N   26257.78002732 -.00001072  00000+0 -28945-2 0  2574
2 48222  87.8892 271.8352 0001853  90.6045  12.0315 13.14499781    11

Traccia ONEWEB-0192 in tempo reale con AllMySat

Download on the App Store